Change the Weather History Date:

Wednesday, July 17, 2013

  Actual Average Record
Temperature  
Mean Temperature 77 °F -  
Max Temperature 91 °F 75 °F 93 °F (2012)
Min Temperature 64 °F 55 °F 46 °F (2002)
Cooling Degree Days 12    
Growing Degree Days 27 (Base 50)    
Moisture  
Dew Point 66 °F    
Average Humidity 66    
Maximum Humidity 97    
Minimum Humidity 43    
Precipitation  
Precipitation 0.00 in - - ()
Sea Level Pressure  
Sea Level Pressure 30.16 in    
Wind  
Wind Speed 2 mph (SW)    
Max Wind Speed 10 mph    
Max Gust Speed -    
Visibility 9 miles    
Events      
Averages and records for this station are not official NWS values.
T = Trace of Precipitation, MM = Missing Value Source: NWS Daily Summary

Daily Weather History Graph

Daily Weather History Graph

Search for Another Location

Airport or City:

Trip Planner

Search our weather history database for the weather conditions in past years. The results will help you decide how hot, cold, wet, or windy it might be!

Date:

Astronomy

Jul. 17, 2013 Rise Set
Actual Time 5:25 AM EDT 8:22 PM EDT
Civil Twilight 4:51 AM EDT 8:56 PM EDT
Nautical Twilight 4:08 AM EDT 9:39 PM EDT
Astronomical Twilight 3:17 AM EDT 10:29 PM EDT
Moon 3:06 PM EDT (7/17) 12:32 AM EDT (7/17)
Length of Visible Light 16h 05m
Length of Day
14h 57m
Waxing Gibbous, 67% of the Moon is Illuminated
Jul 17
Waxing Gibbous
Jul 22
Full
Jul 29
Last Quarter
Aug 6
New
Aug 14
First Quarter

Hourly Weather History & Observations

Time (EDT) Temp. Heat Index Dew Point Humidity Pressure Visibility Wind Dir Wind Speed Gust Speed Precip Events Conditions
12:52 AM 69.1 °F - 66.0 °F 90% 30.22 in 8.0 mi Calm Calm - N/A   Clear
1:52 AM 66.9 °F - 66.0 °F 97% 30.21 in 8.0 mi Calm Calm - N/A   Clear
2:52 AM 66.9 °F - 64.9 °F 93% 30.21 in 7.0 mi Calm Calm - N/A   Clear
3:52 AM 66.0 °F - 64.0 °F 93% 30.20 in 5.0 mi Calm Calm - N/A   Clear
4:52 AM 64.9 °F - 63.0 °F 93% 30.21 in 6.0 mi Calm Calm - N/A   Clear
5:52 AM 64.9 °F - 63.0 °F 93% 30.23 in 5.0 mi Calm Calm - N/A   Clear
6:52 AM 66.9 °F - 64.9 °F 93% 30.23 in 7.0 mi Calm Calm - N/A   Clear
7:52 AM 73.0 °F - 68.0 °F 84% 30.23 in 10.0 mi Calm Calm - N/A   Clear
8:52 AM 79.0 °F - 66.0 °F 64% 30.23 in 10.0 mi South 4.6 mph - N/A   Clear
9:52 AM 82.9 °F 84.4 °F 64.0 °F 53% 30.22 in 10.0 mi Calm Calm - N/A   Clear
10:52 AM 84.9 °F 86.1 °F 64.0 °F 49% 30.21 in 10.0 mi Calm Calm - N/A   Clear
11:52 AM 87.1 °F 88.3 °F 64.0 °F 46% 30.19 in 10.0 mi West 5.8 mph - N/A   Clear
12:52 PM 89.1 °F 90.3 °F 64.0 °F 43% 30.18 in 10.0 mi Variable 5.8 mph - N/A   Clear
1:52 PM 90.0 °F 92.4 °F 66.0 °F 45% 30.16 in 10.0 mi WNW 9.2 mph - N/A   Partly Cloudy
2:52 PM 90.0 °F 91.7 °F 64.9 °F 43% 30.14 in 10.0 mi Variable 6.9 mph - N/A   Partly Cloudy
3:52 PM 89.1 °F 92.1 °F 66.9 °F 48% 30.11 in 10.0 mi South 10.4 mph - N/A   Partly Cloudy
4:52 PM 89.1 °F 92.1 °F 66.9 °F 48% 30.10 in 10.0 mi Variable 5.8 mph - N/A   Partly Cloudy
5:52 PM 89.1 °F 91.0 °F 64.9 °F 45% 30.07 in 10.0 mi WSW 6.9 mph - N/A   Partly Cloudy
6:52 PM 88.0 °F 89.6 °F 64.9 °F 46% 30.06 in 10.0 mi WSW 6.9 mph - N/A   Clear
7:52 PM 84.0 °F 87.0 °F 68.0 °F 58% 30.07 in 10.0 mi SSW 3.5 mph - N/A   Clear
8:52 PM 82.0 °F 85.5 °F 69.1 °F 65% 30.06 in 10.0 mi SSW 4.6 mph - N/A   Clear
9:52 PM 81.0 °F 83.8 °F 68.0 °F 65% 30.08 in 10.0 mi Calm Calm - N/A   Partly Cloudy
10:52 PM 79.0 °F - 69.1 °F 72% 30.06 in 10.0 mi South 4.6 mph - N/A   Partly Cloudy
11:52 PM 79.0 °F - 68.0 °F 69% 30.05 in 10.0 mi SSW 5.8 mph - N/A   Clear